This demonstration page uses our WeatherBlox Daily Observations layout. Learn more.

Left ArrowRight Arrow

39.01783, -85.05884

Hourly Observations for June 15, 2017

Temp ( °F °C ) Dew Point ( °F °C ) Humidity (%) Winds ( mph kmh ) Pressure ( in mb ) Visibility ( mi km ) Precip ( " mm )
12:52 am 00:52 Cloudy 73 22.8 68 20 84 84 VRB 5 7 29.96 1015 10 16 N/A
1:52 am 01:52 Mostly Cloudy 72 22.2 68 20 87 87 N N/A 29.93 1014 10 16 N/A
2:52 am 02:52 Partly Cloudy 71 21.7 67 19.4 87 87 SE 3 6 29.90 1013 10 16 N/A
3:52 am 03:52 Mostly Cloudy 70 21.1 68 20 93 93 WNW 5 7 29.90 1013 10 16 N/A
4:34 am 04:34 Cloudy with Thunderstorms 70 21.1 66 18.9 87 87 WSW 12 19 29.94 1014 10 16 N/A
4:42 am 04:42 Cloudy with Strong Thunderstorms 69 20.6 66 18.9 90 90 WSW 8 13 29.94 1014 2 3 0.07 1.78
4:52 am 04:52 Cloudy with Thunderstorms 68 20 66 18.9 93 93 SW 7 11 29.94 1014 3 5 0.14 3.56
5:09 am 05:09 Cloudy with Light Rain 67 19.4 66 18.9 97 97 SW 8 13 29.94 1014 10 16 0.02 0.51
5:52 am 05:52 Cloudy with Rain 67 19.4 66 18.9 97 97 S 9 15 29.90 1013 5 8 0.11 2.79
6:52 am 06:52 Cloudy 67 19.4 66 18.9 97 97 S 8 13 29.86 1011 10 16 0.07 1.78
7:52 am 07:52 Cloudy 68 20 66 18.9 93 93 SW 7 11 29.85 1011 10 16 N/A
8:52 am 08:52 Mostly Cloudy 71 21.7 67 19.4 87 87 SSW 8 13 29.86 1011 10 16 N/A
9:52 am 09:52 Mostly Cloudy 74 23.3 69 20.6 85 85 WSW 8 13 29.88 1012 10 16 N/A
10:52 am 10:52 Mostly Cloudy 77 25 69 20.6 77 77 WSW 9 15 29.89 1012 10 16 N/A
11:52 am 11:52 Mostly Cloudy 80 26.7 68 20 67 67 W 14 22 29.89 1012 10 16 N/A
12:52 pm 12:52 Mostly Cloudy 79 26.1 67 19.4 67 67 W 7 11 29.88 1012 10 16 N/A
1:52 pm 13:52 Mostly Cloudy 81 27.2 67 19.4 62 62 VRB 6 9 29.88 1012 10 16 N/A
2:52 pm 14:52 Mostly Cloudy 81 27.2 68 20 65 65 W 12 19 29.87 1011 10 16 N/A
3:52 pm 15:52 Cloudy 81 27.2 67 19.4 62 62 W 10 17 29.87 1012 10 16 N/A
4:52 pm 16:52 Mostly Cloudy 82 27.8 68 20 63 63 W 7 11 29.85 1011 10 16 N/A
5:52 pm 17:52 Mostly Cloudy 82 27.8 66 18.9 58 58 W 8 13 29.84 1010 10 16 N/A
6:52 pm 18:52 Cloudy 80 26.7 68 20 67 67 WSW 6 9 29.83 1010 10 16 N/A
7:52 pm 19:52 Cloudy 79 26.1 68 20 69 69 W 8 13 29.84 1011 10 16 N/A
8:52 pm 20:52 Cloudy 77 25 69 20.6 77 77 W 6 9 29.85 1011 10 16 N/A
9:52 pm 21:52 Mostly Cloudy 74 23.3 69 20.6 85 85 W 5 7 29.86 1011 10 16 N/A
10:52 pm 22:52 Mostly Cloudy 73 22.8 69 20.6 87 87 N N/A 29.87 1011 10 16 N/A
11:52 pm 23:52 Mostly Cloudy 71 21.7 68 20 90 90 SSW 3 6 29.85 1011 10 16 N/A

Powered by AerisWeather